This is the latest recevied weather packets stored in our database for station/object XE1GMR. If no packets are shown the sender has not sent any weather packets the latest 10 day(s).
| Time | Temp. | Humidity | Pressure | Rain* | Wind** | Luminosity | Snow |
|---|---|---|---|---|---|---|---|
| 1777660578 | 26.67° C | 41% | 1118.9 hPa | 0 mm | - | 749 W/m² | - |
| 1777660275 | 26.67° C | 42% | 1118.6 hPa | 0 mm | - | 758 W/m² | - |
| 1777659971 | 27.22° C | 42% | 1119.1 hPa | 0 mm | - | 766 W/m² | - |
| 1777659668 | 27.78° C | 41% | 1119 hPa | 0 mm | - | 768 W/m² | - |
| 1777659366 | 27.78° C | 43% | 1119.2 hPa | 0 mm | - | 764 W/m² | - |
| 1777659062 | 27.22° C | 43% | 1119.5 hPa | 0 mm | - | 755 W/m² | - |
| 1777658760 | 27.78° C | 41% | 1119.3 hPa | 0 mm | - | 764 W/m² | - |
| 1777658456 | 27.22° C | 38% | 1119.4 hPa | 0 mm | - | 770 W/m² | - |
| 1777658153 | 26.11° C | 38% | 1119.4 hPa | 0 mm | - | 772 W/m² | - |
| 1777657850 | 26.67° C | 43% | 1119.3 hPa | 0 mm | - | 768 W/m² | - |
| 1777657547 | 26.67° C | 38% | 1119.7 hPa | 0 mm | - | 775 W/m² | - |
| 1777657245 | 26.67° C | 40% | 1119.6 hPa | 0 mm | - | 767 W/m² | - |
| 1777656941 | 26.11° C | 39% | 1119.8 hPa | 0 mm | - | 761 W/m² | - |
| 1777656638 | 26.11° C | 41% | 1119.8 hPa | 0 mm | - | 755 W/m² | - |
| 1777656334 | 26.11° C | 43% | 1119.8 hPa | 0 mm | - | 766 W/m² | - |
| 1777656029 | 25.56° C | 44% | 1119.9 hPa | 0 mm | - | 779 W/m² | - |
| 1777655726 | 25.56° C | 41% | 1119.8 hPa | 0 mm | - | 772 W/m² | - |
| 1777655422 | 26.11° C | 41% | 1119.9 hPa | 0 mm | - | 768 W/m² | - |
| 1777655119 | 25.56° C | 43% | 1119.9 hPa | 0 mm | - | 775 W/m² | - |
| 1777654816 | 26.11° C | 43% | 1120.2 hPa | 0 mm | - | 795 W/m² | - |
| 1777654515 | 25.56° C | 44% | 1119.8 hPa | 0 mm | - | 798 W/m² | - |
| 1777654212 | 25° C | 45% | 1120.1 hPa | 0 mm | - | 800 W/m² | - |
| 1777653909 | 25° C | 45% | 1120.1 hPa | 0 mm | - | 791 W/m² | - |
| 1777653606 | 24.44° C | 46% | 1120.1 hPa | 0 mm | - | 796 W/m² | - |
| 1777653302 | 25° C | 45% | 1120.1 hPa | 0 mm | - | 805 W/m² | - |
* Rain latest hour (hover to see other rain measurements)
** Current wind speed in m/s (hover to see current wind gust speed)